Time,TemperatureF,DewpointF,PressureIn,WindDirection,WindDirectionDegrees,WindSpeedMPH,WindSpeedGustMPH,Humidity,HourlyPrecipIn,Conditions,Clouds,dailyrainin,SoftwareType,DateUTC
2013-01-25 00:00:00,19.6,10.4,30.49,SSW,194,0.0,10.0,67,0.00,,---,0.00,VWS V13.01,2013-01-25 05:00:00,
2013-01-25 00:03:00,19.5,10.3,30.49,SSW,194,0.0,10.0,67,0.00,,---,0.00,VWS V13.01,2013-01-25 05:03:00,
2013-01-25 00:08:00,19.4,10.6,30.49,SSW,194,0.0,10.0,68,0.00,,---,0.00,VWS V13.01,2013-01-25 05:08:00,
2013-01-25 00:13:00,19.3,10.8,30.49,SSW,194,0.0,10.0,69,0.00,,---,0.00,VWS V13.01,2013-01-25 05:13:00,
2013-01-25 00:18:00,19.2,11.0,30.49,SSW,194,0.0,10.0,70,0.00,,---,0.00,VWS V13.01,2013-01-25 05:18:00,
2013-01-25 00:23:00,19.2,11.4,30.49,SSW,194,0.0,10.0,71,0.00,,---,0.00,VWS V13.01,2013-01-25 05:23:00,
2013-01-25 00:28:00,19.2,11.0,30.48,SSW,194,0.0,10.0,70,0.00,,---,0.00,VWS V13.01,2013-01-25 05:28:00,
2013-01-25 00:33:00,19.1,10.9,30.48,SSW,194,0.0,10.0,70,0.00,,---,0.00,VWS V13.01,2013-01-25 05:33:00,
2013-01-25 00:38:00,19.1,10.9,30.48,SSW,195,0.0,10.0,70,0.00,,---,0.00,VWS V13.01,2013-01-25 05:38:00,
2013-01-25 00:43:00,18.9,10.8,30.47,SSW,194,0.0,10.0,70,0.00,,---,0.00,VWS V13.01,2013-01-25 05:43:00,
2013-01-25 00:48:00,18.9,10.4,30.47,SSW,195,0.0,10.0,69,0.00,,---,0.00,VWS V13.01,2013-01-25 05:48:00,
2013-01-25 00:53:00,18.8,10.6,30.47,SSW,194,0.0,10.0,70,0.00,,---,0.00,VWS V13.01,2013-01-25 05:53:00,
2013-01-25 00:58:00,18.7,9.9,30.48,SSW,194,0.0,10.0,68,0.00,,---,0.00,VWS V13.01,2013-01-25 05:58:00,
2013-01-25 01:03:00,18.7,9.9,30.48,SSW,194,0.0,10.0,68,0.00,,---,0.00,VWS V13.01,2013-01-25 06:03:00,
2013-01-25 01:08:00,18.7,10.2,30.48,SSW,195,0.0,10.0,69,0.00,,---,0.00,VWS V13.01,2013-01-25 06:08:00,
2013-01-25 01:13:00,18.8,10.3,30.48,SSW,194,0.0,10.0,69,0.00,,---,0.00,VWS V13.01,2013-01-25 06:13:00,
2013-01-25 01:18:00,18.8,10.3,30.48,SSW,194,0.0,10.0,69,0.00,,---,0.00,VWS V13.01,2013-01-25 06:18:00,
2013-01-25 01:23:00,18.8,10.3,30.48,SSW,194,0.0,10.0,69,0.00,,---,0.00,VWS V13.01,2013-01-25 06:23:00,
2013-01-25 01:28:00,18.8,10.3,30.48,SSW,194,0.0,10.0,69,0.00,,---,0.00,VWS V13.01,2013-01-25 06:28:00,
2013-01-25 01:33:00,18.8,10.3,30.48,SSW,194,0.0,10.0,69,0.00,,---,0.00,VWS V13.01,2013-01-25 06:33:00,
2013-01-25 01:38:00,18.9,10.4,30.48,SSW,194,0.0,10.0,69,0.00,,---,0.00,VWS V13.01,2013-01-25 06:38:00,
2013-01-25 01:43:00,18.9,10.4,30.49,SSW,194,0.0,10.0,69,0.00,,---,0.00,VWS V13.01,2013-01-25 06:43:00,
2013-01-25 01:48:00,18.9,10.4,30.49,SSW,194,0.0,10.0,69,0.00,,---,0.00,VWS V13.01,2013-01-25 06:48:00,
2013-01-25 01:53:00,18.9,10.8,30.49,SSW,193,0.0,10.0,70,0.00,,---,0.00,VWS V13.01,2013-01-25 06:53:00,
2013-01-25 01:58:00,18.9,10.8,30.49,SSW,195,0.0,10.0,70,0.00,,---,0.00,VWS V13.01,2013-01-25 06:58:00,
2013-01-25 02:03:00,18.8,10.6,30.49,SSW,194,0.0,10.0,70,0.00,,---,0.00,VWS V13.01,2013-01-25 07:03:00,
2013-01-25 02:08:00,18.7,10.9,30.49,SSW,194,0.0,10.0,71,0.00,,---,0.00,VWS V13.01,2013-01-25 07:08:00,
2013-01-25 02:13:00,18.6,10.8,30.50,SSW,194,0.0,10.0,71,0.00,,---,0.00,VWS V13.01,2013-01-25 07:13:00,
2013-01-25 02:18:00,18.5,10.7,30.50,SSW,194,0.0,10.0,71,0.00,,---,0.00,VWS V13.01,2013-01-25 07:18:00,
2013-01-25 02:23:00,18.4,10.9,30.50,SSW,194,0.0,10.0,72,0.00,,---,0.00,VWS V13.01,2013-01-25 07:23:00,
2013-01-25 02:28:00,18.3,10.5,30.49,SSW,195,0.0,10.0,71,0.00,,---,0.00,VWS V13.01,2013-01-25 07:28:00,
2013-01-25 02:33:00,18.2,10.7,30.49,SSW,194,0.0,10.0,72,0.00,,---,0.00,VWS V13.01,2013-01-25 07:33:00,
2013-01-25 02:38:00,18.0,10.8,30.49,SSW,194,0.0,10.0,73,0.00,,---,0.00,VWS V13.01,2013-01-25 07:38:00,
2013-01-25 02:43:00,18.0,11.1,30.50,SSW,194,0.0,10.0,74,0.00,,---,0.00,VWS V13.01,2013-01-25 07:43:00,
2013-01-25 02:48:00,18.0,11.1,30.50,SSW,194,0.0,10.0,74,0.00,,---,0.00,VWS V13.01,2013-01-25 07:48:00,
2013-01-25 02:53:00,17.9,11.3,30.50,SSW,194,0.0,10.0,75,0.00,,---,0.00,VWS V13.01,2013-01-25 07:53:00,
2013-01-25 02:58:00,18.0,11.1,30.50,SSW,194,0.0,10.0,74,0.00,,---,0.00,VWS V13.01,2013-01-25 07:58:00,
2013-01-25 03:03:00,18.0,11.4,30.50,SSW,194,0.0,10.0,75,0.00,,---,0.00,VWS V13.01,2013-01-25 08:03:00,
2013-01-25 03:08:00,18.1,11.5,30.50,SSW,194,0.0,10.0,75,0.00,,---,0.00,VWS V13.01,2013-01-25 08:08:00,
2013-01-25 03:13:00,18.2,11.3,30.48,SSW,194,0.0,10.0,74,0.00,,---,0.00,VWS V13.01,2013-01-25 08:13:00,
2013-01-25 03:18:00,18.3,11.4,30.48,SSW,195,0.0,10.0,74,0.00,,---,0.00,VWS V13.01,2013-01-25 08:18:00,
2013-01-25 03:23:00,18.3,11.7,30.48,SSW,194,0.0,10.0,75,0.00,,---,0.00,VWS V13.01,2013-01-25 08:23:00,
2013-01-25 03:28:00,18.4,11.8,30.49,SSW,194,0.0,10.0,75,0.00,,---,0.00,VWS V13.01,2013-01-25 08:28:00,
2013-01-25 03:33:00,18.5,12.2,30.49,SSW,195,0.0,10.0,76,0.00,,---,0.00,VWS V13.01,2013-01-25 08:33:00,
2013-01-25 03:38:00,18.6,12.3,30.49,SSW,194,0.0,10.0,76,0.00,,---,0.00,VWS V13.01,2013-01-25 08:38:00,
2013-01-25 03:43:00,18.6,12.0,30.50,SSW,194,0.0,10.0,75,0.00,,---,0.00,VWS V13.01,2013-01-25 08:43:00,
2013-01-25 03:48:00,18.7,12.1,30.50,SSW,194,0.0,10.0,75,0.00,,---,0.00,VWS V13.01,2013-01-25 08:48:00,
2013-01-25 03:53:00,18.7,12.4,30.50,SSW,194,0.0,10.0,76,0.00,,---,0.00,VWS V13.01,2013-01-25 08:53:00,
2013-01-25 03:58:00,18.8,12.5,30.48,SSW,194,0.0,10.0,76,0.00,,---,0.00,VWS V13.01,2013-01-25 08:58:00,
2013-01-25 04:03:00,18.8,12.5,30.48,SSW,194,0.0,10.0,76,0.00,,---,0.00,VWS V13.01,2013-01-25 09:03:00,
2013-01-25 04:08:00,18.8,12.2,30.48,SSW,194,0.0,10.0,75,0.00,,---,0.00,VWS V13.01,2013-01-25 09:08:00,
2013-01-25 04:13:00,18.9,12.3,30.48,SSW,194,0.0,10.0,75,0.00,,---,0.00,VWS V13.01,2013-01-25 09:13:00,
2013-01-25 04:18:00,18.9,12.3,30.48,SSW,193,0.0,10.0,75,0.00,,---,0.00,VWS V13.01,2013-01-25 09:18:00,
2013-01-25 04:23:00,19.0,12.7,30.48,SSW,194,0.0,10.0,76,0.00,,---,0.00,VWS V13.01,2013-01-25 09:23:00,
2013-01-25 04:28:00,19.0,12.4,30.49,SSW,194,0.0,10.0,75,0.00,,---,0.00,VWS V13.01,2013-01-25 09:28:00,
2013-01-25 04:33:00,19.2,12.9,30.49,SSW,194,0.0,10.0,76,0.00,,---,0.00,VWS V13.01,2013-01-25 09:33:00,
2013-01-25 04:38:00,19.2,12.6,30.49,SSW,194,0.0,10.0,75,0.00,,---,0.00,VWS V13.01,2013-01-25 09:38:00,
2013-01-25 04:43:00,19.3,12.7,30.48,SSW,194,0.0,10.0,75,0.00,,---,0.00,VWS V13.01,2013-01-25 09:43:00,
2013-01-25 04:48:00,19.3,13.0,30.48,SSW,194,0.0,10.0,76,0.00,,---,0.00,VWS V13.01,2013-01-25 09:48:00,
2013-01-25 04:53:00,19.4,13.1,30.48,SSW,194,0.0,10.0,76,0.00,,---,0.00,VWS V13.01,2013-01-25 09:53:00,
2013-01-25 04:58:00,19.4,13.1,30.48,SSW,194,0.0,10.0,76,0.00,,---,0.00,VWS V13.01,2013-01-25 09:58:00,
2013-01-25 05:03:00,19.4,13.4,30.48,SSW,194,0.0,10.0,77,0.00,,---,0.00,VWS V13.01,2013-01-25 10:03:00,
2013-01-25 05:08:00,19.4,13.4,30.48,SSW,195,0.0,10.0,77,0.00,,---,0.00,VWS V13.01,2013-01-25 10:08:00,
2013-01-25 05:13:00,19.5,13.5,30.48,SSW,194,0.0,10.0,77,0.00,,---,0.00,VWS V13.01,2013-01-25 10:13:00,
2013-01-25 05:18:00,19.6,13.6,30.48,SSW,194,0.0,10.0,77,0.00,,---,0.00,VWS V13.01,2013-01-25 10:18:00,
2013-01-25 05:23:00,19.6,13.9,30.48,SSW,194,0.0,10.0,78,0.00,,---,0.00,VWS V13.01,2013-01-25 10:23:00,
2013-01-25 05:28:00,19.7,13.7,30.49,SSW,195,0.0,10.0,77,0.00,,---,0.00,VWS V13.01,2013-01-25 10:28:00,
2013-01-25 05:33:00,19.9,13.9,30.49,SSW,194,0.0,10.0,77,0.00,,---,0.00,VWS V13.01,2013-01-25 10:33:00,
2013-01-25 05:38:00,20.0,14.3,30.49,SSW,194,0.0,10.0,78,0.00,,---,0.00,VWS V13.01,2013-01-25 10:38:00,
2013-01-25 05:43:00,20.1,14.4,30.49,SSW,194,0.0,10.0,78,0.00,,---,0.00,VWS V13.01,2013-01-25 10:43:00,
2013-01-25 05:48:00,20.2,14.4,30.49,SSW,194,0.0,10.0,78,0.00,,---,0.00,VWS V13.01,2013-01-25 10:48:00,
2013-01-25 05:53:00,20.3,14.6,30.49,SSW,194,0.0,10.0,78,0.00,,---,0.00,VWS V13.01,2013-01-25 10:53:00,
2013-01-25 05:58:00,20.4,14.6,30.48,SSW,194,0.0,10.0,78,0.00,,---,0.00,VWS V13.01,2013-01-25 10:58:00,
2013-01-25 06:03:00,20.5,14.7,30.48,SSW,194,0.0,10.0,78,0.00,,---,0.00,VWS V13.01,2013-01-25 11:03:00,
2013-01-25 06:08:00,20.6,14.8,30.48,SSW,194,0.0,10.0,78,0.00,,---,0.00,VWS V13.01,2013-01-25 11:08:00,
2013-01-25 06:13:00,20.7,14.9,30.49,SSW,194,0.0,10.0,78,0.00,,---,0.00,VWS V13.01,2013-01-25 11:13:00,
2013-01-25 06:18:00,20.9,14.8,30.49,SSW,194,0.0,10.0,77,0.00,,---,0.00,VWS V13.01,2013-01-25 11:18:00,
2013-01-25 06:23:00,21.0,14.9,30.49,SSW,194,0.0,10.0,77,0.00,,---,0.00,VWS V13.01,2013-01-25 11:23:00,
2013-01-25 06:28:00,21.1,14.7,30.47,SSW,194,0.0,10.0,76,0.00,,---,0.00,VWS V13.01,2013-01-25 11:28:00,
2013-01-25 06:33:00,21.2,14.5,30.47,SSW,194,0.0,10.0,75,0.00,,---,0.00,VWS V13.01,2013-01-25 11:33:00,
2013-01-25 06:38:00,21.2,14.5,30.47,SSW,194,0.0,10.0,75,0.00,,---,0.00,VWS V13.01,2013-01-25 11:38:00,
2013-01-25 06:43:00,21.3,14.3,30.48,SSW,194,0.0,10.0,74,0.00,,---,0.00,VWS V13.01,2013-01-25 11:43:00,
2013-01-25 06:48:00,21.4,14.1,30.48,SSW,194,0.0,10.0,73,0.00,,---,0.00,VWS V13.01,2013-01-25 11:48:00,
2013-01-25 06:53:00,21.5,14.2,30.48,SSW,194,0.0,10.0,73,0.00,,---,0.00,VWS V13.01,2013-01-25 11:53:00,
2013-01-25 06:58:00,21.6,14.0,30.48,SSW,194,0.0,10.0,72,0.00,,---,0.00,VWS V13.01,2013-01-25 11:58:00,
2013-01-25 07:03:00,21.7,14.4,30.48,SSW,195,0.0,10.0,73,0.00,,---,0.00,VWS V13.01,2013-01-25 12:03:00,
2013-01-25 07:08:00,21.7,13.8,30.48,SSW,193,0.0,10.0,71,0.00,,---,0.00,VWS V13.01,2013-01-25 12:08:00,
2013-01-25 07:13:00,21.7,13.4,30.47,SSW,194,0.0,10.0,70,0.00,,---,0.00,VWS V13.01,2013-01-25 12:13:00,
2013-01-25 07:18:00,21.7,13.4,30.47,SSW,194,0.0,10.0,70,0.00,,---,0.00,VWS V13.01,2013-01-25 12:18:00,
2013-01-25 07:23:00,21.8,12.9,30.47,SSW,194,0.0,10.0,68,0.00,,---,0.00,VWS V13.01,2013-01-25 12:23:00,
2013-01-25 07:28:00,21.8,12.9,30.47,SSW,194,0.0,10.0,68,0.00,,---,0.00,VWS V13.01,2013-01-25 12:28:00,
2013-01-25 07:33:00,21.9,12.3,30.47,SSW,194,0.0,10.0,66,0.00,,---,0.00,VWS V13.01,2013-01-25 12:33:00,
2013-01-25 07:38:00,21.9,12.3,30.47,SSW,194,0.0,10.0,66,0.00,,---,0.00,VWS V13.01,2013-01-25 12:38:00,
2013-01-25 07:43:00,22.0,11.4,30.45,SSW,194,0.0,10.0,63,0.00,,---,0.00,VWS V13.01,2013-01-25 12:43:00,
2013-01-25 07:48:00,22.1,11.8,30.45,SSW,194,0.0,10.0,64,0.00,,---,0.00,VWS V13.01,2013-01-25 12:48:00,
2013-01-25 07:53:00,22.2,11.2,30.45,SSW,194,0.0,10.0,62,0.00,,---,0.00,VWS V13.01,2013-01-25 12:53:00,
2013-01-25 07:58:00,22.3,9.8,30.44,SSW,193,0.0,10.0,58,0.00,,---,0.00,VWS V13.01,2013-01-25 12:58:00,
2013-01-25 08:03:00,22.4,9.5,30.44,SSW,193,0.0,10.0,57,0.00,,---,0.00,VWS V13.01,2013-01-25 13:03:00,
2013-01-25 08:08:00,22.6,9.3,30.44,SSW,193,0.0,10.0,56,0.00,,---,0.00,VWS V13.01,2013-01-25 13:08:00,
2013-01-25 08:13:00,22.8,9.9,30.44,South,180,0.0,10.0,57,0.00,,---,0.00,VWS V13.01,2013-01-25 13:13:00,
2013-01-25 08:18:00,22.9,9.2,30.44,SSE,158,0.0,10.0,55,0.00,,---,0.00,VWS V13.01,2013-01-25 13:18:00,
2013-01-25 08:23:00,23.1,9.4,30.44,SSE,165,0.0,10.0,55,0.00,,---,0.00,VWS V13.01,2013-01-25 13:23:00,
2013-01-25 08:28:00,23.2,9.0,30.43,SSE,163,0.0,10.0,54,0.00,,---,0.00,VWS V13.01,2013-01-25 13:28:00,
2013-01-25 08:33:00,23.3,9.1,30.43,WNW,288,0.0,10.0,54,0.00,,---,0.00,VWS V13.01,2013-01-25 13:33:00,
2013-01-25 08:38:00,23.5,8.9,30.43,WNW,285,0.0,10.0,53,0.00,,---,0.00,VWS V13.01,2013-01-25 13:38:00,
2013-01-25 08:43:00,23.5,8.5,30.44,NNW,333,0.0,10.0,52,0.00,,---,0.00,VWS V13.01,2013-01-25 13:43:00,
2013-01-25 08:48:00,23.6,9.0,30.44,NNW,328,0.0,10.0,53,0.00,,---,0.00,VWS V13.01,2013-01-25 13:48:00,
2013-01-25 08:53:00,23.8,9.2,30.44,NNW,328,0.0,10.0,53,0.00,,---,0.00,VWS V13.01,2013-01-25 13:53:00,
2013-01-25 08:58:00,24.0,8.5,30.44,SSE,158,2.0,10.0,51,0.00,,---,0.00,VWS V13.01,2013-01-25 13:58:00,
2013-01-25 09:03:00,24.0,8.1,30.44,WNW,293,0.0,10.0,50,0.00,,---,0.00,VWS V13.01,2013-01-25 14:03:00,
2013-01-25 09:08:00,24.0,7.6,30.44,NNW,333,0.0,10.0,49,0.00,,---,0.00,VWS V13.01,2013-01-25 14:08:00,
2013-01-25 09:13:00,24.1,7.7,30.45,NNW,340,0.0,10.0,49,0.00,,---,0.00,VWS V13.01,2013-01-25 14:13:00,
2013-01-25 09:18:00,24.1,8.2,30.45,NNW,335,0.0,10.0,50,0.00,,---,0.00,VWS V13.01,2013-01-25 14:18:00,
2013-01-25 09:23:00,24.2,7.8,30.45,NNW,332,0.0,10.0,49,0.00,,---,0.00,VWS V13.01,2013-01-25 14:23:00,
2013-01-25 09:28:00,24.2,8.3,30.46,South,172,0.0,10.0,50,0.00,,---,0.00,VWS V13.01,2013-01-25 14:28:00,
2013-01-25 09:33:00,24.3,7.4,30.46,South,172,0.0,10.0,48,0.00,,---,0.00,VWS V13.01,2013-01-25 14:33:00,
2013-01-25 09:38:00,24.4,7.5,30.46,North,352,0.0,10.0,48,0.00,,---,0.00,VWS V13.01,2013-01-25 14:38:00,
2013-01-25 09:43:00,24.5,7.6,30.45,SSW,205,0.0,10.0,48,0.00,,---,0.00,VWS V13.01,2013-01-25 14:43:00,
2013-01-25 09:48:00,24.6,7.7,30.45,SSE,165,0.0,10.0,48,0.00,,---,0.00,VWS V13.01,2013-01-25 14:48:00,
2013-01-25 09:53:00,24.6,6.8,30.45,WNW,297,0.0,10.0,46,0.00,,---,0.00,VWS V13.01,2013-01-25 14:53:00,
2013-01-25 09:58:00,24.6,7.3,30.44,NW,304,0.0,10.0,47,0.00,,---,0.00,VWS V13.01,2013-01-25 14:58:00,
2013-01-25 10:03:00,24.6,6.8,30.44,South,169,1.0,10.0,46,0.00,,---,0.00,VWS V13.01,2013-01-25 15:03:00,
2013-01-25 10:08:00,24.6,6.8,30.44,NW,316,0.0,10.0,46,0.00,,---,0.00,VWS V13.01,2013-01-25 15:08:00,
2013-01-25 10:13:00,24.6,7.3,30.44,SW,235,0.0,10.0,47,0.00,,---,0.00,VWS V13.01,2013-01-25 15:13:00,
2013-01-25 10:18:00,24.6,7.3,30.44,SSE,158,1.0,10.0,47,0.00,,---,0.00,VWS V13.01,2013-01-25 15:18:00,
2013-01-25 10:23:00,24.6,8.2,30.44,SSE,153,0.0,10.0,49,0.00,,---,0.00,VWS V13.01,2013-01-25 15:23:00,
2013-01-25 10:28:00,24.6,8.2,30.42,SW,225,0.0,10.0,49,0.00,,---,0.00,VWS V13.01,2013-01-25 15:28:00,
2013-01-25 10:33:00,24.7,7.8,30.42,North,353,0.0,10.0,48,0.00,,---,0.00,VWS V13.01,2013-01-25 15:33:00,
2013-01-25 10:38:00,24.7,8.7,30.42,South,170,0.0,10.0,50,0.00,,---,0.00,VWS V13.01,2013-01-25 15:38:00,
2013-01-25 10:43:00,24.7,7.8,30.40,NW,324,0.0,10.0,48,0.00,,---,0.00,VWS V13.01,2013-01-25 15:43:00,
2013-01-25 10:48:00,24.7,8.3,30.40,SSE,165,0.0,10.0,49,0.00,,---,0.00,VWS V13.01,2013-01-25 15:48:00,
2013-01-25 10:53:00,24.7,8.3,30.40,NNW,330,0.0,10.0,49,0.00,,---,0.00,VWS V13.01,2013-01-25 15:53:00,
2013-01-25 10:58:00,24.7,8.3,30.40,SE,146,1.0,10.0,49,0.00,,---,0.00,VWS V13.01,2013-01-25 15:58:00,
2013-01-25 11:03:00,24.8,9.7,30.40,NNW,336,0.0,10.0,52,0.00,,---,0.00,VWS V13.01,2013-01-25 16:03:00,
2013-01-25 11:08:00,24.7,9.2,30.40,SSE,160,0.0,10.0,51,0.00,,---,0.00,VWS V13.01,2013-01-25 16:08:00,
2013-01-25 11:12:00,24.6,9.9,30.39,NW,321,0.0,10.0,53,0.00,,---,0.00,VWS V13.01,2013-01-25 16:12:00,
2013-01-25 11:17:00,24.4,9.3,30.39,SSE,166,0.0,10.0,52,0.00,,---,0.00,VWS V13.01,2013-01-25 16:17:00,
2013-01-25 11:22:00,24.5,10.2,30.39,WSW,238,0.0,10.0,54,0.00,,---,0.00,VWS V13.01,2013-01-25 16:22:00,
2013-01-25 11:27:00,24.5,9.8,30.38,NW,310,0.0,10.0,53,0.00,,---,0.00,VWS V13.01,2013-01-25 16:27:00,
2013-01-25 11:32:00,24.6,10.8,30.38,NNW,340,0.0,10.0,55,0.00,,---,0.00,VWS V13.01,2013-01-25 16:32:00,
2013-01-25 11:37:00,24.5,11.9,30.38,SSE,165,0.0,10.0,58,0.00,,---,0.00,VWS V13.01,2013-01-25 16:37:00,
2013-01-25 11:42:00,24.5,11.9,30.36,SSE,158,0.0,10.0,58,0.00,,---,0.00,VWS V13.01,2013-01-25 16:42:00,
2013-01-25 11:47:00,24.4,12.1,30.36,SSE,156,0.0,10.0,59,0.00,,---,0.00,VWS V13.01,2013-01-25 16:47:00,
2013-01-25 11:52:00,24.2,12.7,30.36,SW,230,0.0,10.0,61,0.00,,---,0.00,VWS V13.01,2013-01-25 16:52:00,
2013-01-25 11:57:00,24.0,13.2,30.36,North,352,3.0,10.0,63,0.00,,---,0.00,VWS V13.01,2013-01-25 16:57:00,
2013-01-25 12:02:00,23.7,13.3,30.36,NW,323,0.0,10.0,64,0.00,,---,0.00,VWS V13.01,2013-01-25 17:02:00,
2013-01-25 12:07:00,23.6,13.6,30.36,NNW,328,2.0,10.0,65,0.00,,---,0.00,VWS V13.01,2013-01-25 17:07:00,
2013-01-25 12:12:00,23.5,14.2,30.33,NW,319,0.0,10.0,67,0.00,,---,0.00,VWS V13.01,2013-01-25 17:12:00,
2013-01-25 12:17:00,23.4,14.4,30.33,NW,326,1.0,10.0,68,0.00,,---,0.00,VWS V13.01,2013-01-25 17:17:00,
2013-01-25 12:22:00,23.6,15.3,30.33,NW,326,0.0,10.0,70,0.00,,---,0.00,VWS V13.01,2013-01-25 17:22:00,
2013-01-25 12:27:00,23.6,14.9,30.33,NNW,338,1.0,10.0,69,0.00,,---,0.00,VWS V13.01,2013-01-25 17:27:00,
2013-01-25 12:32:00,23.5,15.8,30.33,SW,215,0.0,10.0,72,0.00,,---,0.00,VWS V13.01,2013-01-25 17:32:00,
2013-01-25 12:37:00,23.4,15.1,30.33,NNW,347,0.0,10.0,70,0.00,,---,0.00,VWS V13.01,2013-01-25 17:37:00,
2013-01-25 12:42:00,23.4,16.0,30.30,NNW,338,0.0,10.0,73,0.00,,---,0.00,VWS V13.01,2013-01-25 17:42:00,
2013-01-25 12:47:00,23.4,15.7,30.30,NNW,338,0.0,10.0,72,0.00,,---,0.00,VWS V13.01,2013-01-25 17:47:00,
2013-01-25 12:52:00,23.5,15.8,30.30,SSE,158,0.0,10.0,72,0.00,,---,0.00,VWS V13.01,2013-01-25 17:52:00,
2013-01-25 12:57:00,23.6,15.9,30.28,South,173,0.0,10.0,72,0.00,,---,0.00,VWS V13.01,2013-01-25 17:57:00,
2013-01-25 13:02:00,23.6,15.6,30.28,NNW,328,0.0,10.0,71,0.00,,---,0.00,VWS V13.01,2013-01-25 18:02:00,
2013-01-25 13:07:00,23.5,15.5,30.28,NNE,32,0.0,10.0,71,0.00,,---,0.00,VWS V13.01,2013-01-25 18:07:00,
2013-01-25 13:12:00,23.5,15.5,30.27,SSE,160,0.0,10.0,71,0.00,,---,0.00,VWS V13.01,2013-01-25 18:12:00,
2013-01-25 13:17:00,23.6,15.9,30.27,East,92,0.0,10.0,72,0.00,,---,0.00,VWS V13.01,2013-01-25 18:17:00,
2013-01-25 13:22:00,23.6,15.3,30.27,NNW,332,0.0,10.0,70,0.00,,---,0.00,VWS V13.01,2013-01-25 18:22:00,
2013-01-25 13:27:00,23.7,15.4,30.26,NNW,330,0.0,10.0,70,0.00,,---,0.00,VWS V13.01,2013-01-25 18:27:00,
2013-01-25 13:32:00,23.8,15.5,30.26,NW,322,0.0,10.0,70,0.00,,---,0.00,VWS V13.01,2013-01-25 18:32:00,
2013-01-25 13:37:00,23.8,15.8,30.26,SW,236,0.0,10.0,71,0.00,,---,0.00,VWS V13.01,2013-01-25 18:37:00,
2013-01-25 13:42:00,23.9,17.1,30.27,NNW,330,0.0,10.0,75,0.00,,---,0.00,VWS V13.01,2013-01-25 18:42:00,
2013-01-25 13:47:00,24.1,17.6,30.27,West,270,0.0,10.0,76,0.00,,---,0.00,VWS V13.01,2013-01-25 18:47:00,
2013-01-25 13:52:00,24.2,17.1,30.27,West,271,0.0,10.0,74,0.00,,---,0.00,VWS V13.01,2013-01-25 18:52:00,
2013-01-25 13:57:00,24.5,18.6,30.26,West,268,0.0,10.0,78,0.00,,---,0.00,VWS V13.01,2013-01-25 18:57:00,
2013-01-25 14:02:00,24.6,18.1,30.26,West,267,0.0,10.0,76,0.00,,---,0.00,VWS V13.01,2013-01-25 19:02:00,
2013-01-25 14:07:00,24.8,19.2,30.26,SW,228,0.0,10.0,79,0.00,,---,0.00,VWS V13.01,2013-01-25 19:07:00,
2013-01-25 14:12:00,25.0,19.4,30.23,SW,228,0.0,10.0,79,0.00,,---,0.00,VWS V13.01,2013-01-25 19:12:00,
2013-01-25 14:17:00,25.0,18.8,30.23,WSW,238,0.0,10.0,77,0.00,,---,0.00,VWS V13.01,2013-01-25 19:17:00,
2013-01-25 14:22:00,25.0,19.4,30.23,South,184,0.0,10.0,79,0.00,,---,0.00,VWS V13.01,2013-01-25 19:22:00,
2013-01-25 14:27:00,25.1,20.1,30.22,NNE,20,0.0,10.0,81,0.00,,---,0.00,VWS V13.01,2013-01-25 19:27:00,
2013-01-25 14:32:00,25.2,20.2,30.22,SW,231,0.0,10.0,81,0.00,,---,0.00,VWS V13.01,2013-01-25 19:32:00,
2013-01-25 14:37:00,25.3,20.3,30.22,South,190,0.0,10.0,81,0.00,,---,0.00,VWS V13.01,2013-01-25 19:37:00,
2013-01-25 14:42:00,25.4,20.7,30.21,NW,304,0.0,10.0,82,0.00,,---,0.00,VWS V13.01,2013-01-25 19:42:00,
2013-01-25 14:47:00,25.4,20.7,30.21,SSE,160,0.0,10.0,82,0.00,,---,0.00,VWS V13.01,2013-01-25 19:47:00,
2013-01-25 14:52:00,25.5,20.8,30.21,WNW,291,0.0,10.0,82,0.00,,---,0.01,VWS V13.01,2013-01-25 19:52:00,
2013-01-25 14:57:00,25.5,20.5,30.20,South,170,0.0,10.0,81,0.00,,---,0.01,VWS V13.01,2013-01-25 19:57:00,
2013-01-25 15:02:00,25.5,20.8,30.20,NNW,340,0.0,10.0,82,0.00,,---,0.01,VWS V13.01,2013-01-25 20:02:00,
2013-01-25 15:07:00,25.5,20.5,30.20,North,349,0.0,10.0,81,0.00,,---,0.01,VWS V13.01,2013-01-25 20:07:00,
2013-01-25 15:12:00,25.5,21.1,30.19,NW,320,1.0,10.0,83,0.00,,---,0.01,VWS V13.01,2013-01-25 20:12:00,
2013-01-25 15:17:00,25.3,20.6,30.19,North,356,0.0,10.0,82,0.00,,---,0.01,VWS V13.01,2013-01-25 20:17:00,
2013-01-25 15:22:00,25.3,20.9,30.19,North,355,0.0,10.0,83,0.00,,---,0.01,VWS V13.01,2013-01-25 20:22:00,
2013-01-25 15:27:00,25.3,21.1,30.17,NNW,343,0.0,10.0,84,0.00,,---,0.01,VWS V13.01,2013-01-25 20:27:00,
2013-01-25 15:32:00,25.4,21.2,30.17,West,278,0.0,10.0,84,0.00,,---,0.01,VWS V13.01,2013-01-25 20:32:00,
2013-01-25 15:37:00,25.4,21.5,30.17,West,278,0.0,10.0,85,0.00,,---,0.01,VWS V13.01,2013-01-25 20:37:00,
2013-01-25 15:42:00,25.6,22.0,30.17,West,278,0.0,10.0,86,0.00,,---,0.01,VWS V13.01,2013-01-25 20:42:00,
2013-01-25 15:47:00,25.7,22.1,30.17,West,278,0.0,10.0,86,0.00,,---,0.01,VWS V13.01,2013-01-25 20:47:00,
2013-01-25 15:52:00,25.9,22.3,30.17,West,281,0.0,10.0,86,0.00,,---,0.01,VWS V13.01,2013-01-25 20:52:00,
2013-01-25 15:57:00,25.8,21.9,30.18,WSW,240,0.0,10.0,85,0.00,,---,0.01,VWS V13.01,2013-01-25 20:57:00,
2013-01-25 16:02:00,25.8,21.9,30.18,WSW,240,0.0,10.0,85,0.00,,---,0.01,VWS V13.01,2013-01-25 21:02:00,
2013-01-25 16:07:00,25.7,21.8,30.18,WSW,250,0.0,10.0,85,0.00,,---,0.01,VWS V13.01,2013-01-25 21:07:00,
2013-01-25 16:12:00,25.7,22.1,30.17,WSW,238,0.0,10.0,86,0.00,,---,0.01,VWS V13.01,2013-01-25 21:12:00,
2013-01-25 16:17:00,25.6,22.0,30.17,SW,226,0.0,10.0,86,0.00,,---,0.01,VWS V13.01,2013-01-25 21:17:00,
2013-01-25 16:22:00,25.6,22.3,30.17,SW,226,0.0,10.0,87,0.00,,---,0.01,VWS V13.01,2013-01-25 21:22:00,
2013-01-25 16:27:00,25.7,22.6,30.17,SW,226,0.0,10.0,88,0.00,,---,0.01,VWS V13.01,2013-01-25 21:27:00,
2013-01-25 16:32:00,25.8,22.5,30.17,SW,231,0.0,10.0,87,0.00,,---,0.01,VWS V13.01,2013-01-25 21:32:00,
2013-01-25 16:37:00,25.8,22.2,30.17,NW,315,0.0,10.0,86,0.00,,---,0.01,VWS V13.01,2013-01-25 21:37:00,
2013-01-25 16:42:00,25.9,22.6,30.17,NW,323,0.0,10.0,87,0.00,,---,0.01,VWS V13.01,2013-01-25 21:42:00,
2013-01-25 16:47:00,25.9,22.6,30.17,NNW,340,0.0,10.0,87,0.00,,---,0.01,VWS V13.01,2013-01-25 21:47:00,
2013-01-25 16:52:00,25.9,22.6,30.17,NNW,333,0.0,10.0,87,0.00,,---,0.01,VWS V13.01,2013-01-25 21:52:00,
2013-01-25 16:57:00,25.9,22.6,30.16,NNW,333,0.0,10.0,87,0.00,,---,0.01,VWS V13.01,2013-01-25 21:57:00,
2013-01-25 17:02:00,25.9,22.6,30.16,NNW,335,0.0,10.0,87,0.00,,---,0.01,VWS V13.01,2013-01-25 22:02:00,
2013-01-25 17:07:00,26.0,22.9,30.16,NNW,335,0.0,10.0,88,0.00,,---,0.01,VWS V13.01,2013-01-25 22:07:00,
2013-01-25 17:12:00,26.1,23.0,30.14,NNW,333,0.0,10.0,88,0.00,,---,0.01,VWS V13.01,2013-01-25 22:12:00,
2013-01-25 17:17:00,26.1,23.0,30.14,NNW,333,0.0,10.0,88,0.00,,---,0.01,VWS V13.01,2013-01-25 22:17:00,
2013-01-25 17:22:00,26.2,23.1,30.14,NNW,333,0.0,10.0,88,0.00,,---,0.01,VWS V13.01,2013-01-25 22:22:00,
2013-01-25 17:27:00,26.2,23.1,30.14,NNW,333,0.0,10.0,88,0.00,,---,0.01,VWS V13.01,2013-01-25 22:27:00,
2013-01-25 17:32:00,26.1,23.0,30.14,NNW,333,0.0,10.0,88,0.00,,---,0.01,VWS V13.01,2013-01-25 22:32:00,
2013-01-25 17:37:00,26.2,23.1,30.14,North,1,0.0,10.0,88,0.00,,---,0.01,VWS V13.01,2013-01-25 22:37:00,
2013-01-25 17:42:00,26.2,23.1,30.14,North,359,0.0,10.0,88,0.00,,---,0.01,VWS V13.01,2013-01-25 22:42:00,
2013-01-25 17:47:00,26.1,23.0,30.14,NNE,32,0.0,10.0,88,0.00,,---,0.01,VWS V13.01,2013-01-25 22:47:00,
2013-01-25 17:52:00,26.0,22.9,30.14,SE,146,0.0,10.0,88,0.00,,---,0.01,VWS V13.01,2013-01-25 22:52:00,
2013-01-25 17:57:00,26.0,23.2,30.15,SE,145,0.0,10.0,89,0.00,,---,0.01,VWS V13.01,2013-01-25 22:57:00,
2013-01-25 18:02:00,26.0,23.2,30.15,SE,146,0.0,10.0,89,0.00,,---,0.01,VWS V13.01,2013-01-25 23:02:00,
2013-01-25 18:07:00,26.0,23.2,30.15,SE,143,0.0,10.0,89,0.00,,---,0.01,VWS V13.01,2013-01-25 23:07:00,
2013-01-25 18:12:00,26.0,23.2,30.16,SSE,147,0.0,10.0,89,0.00,,---,0.01,VWS V13.01,2013-01-25 23:12:00,
2013-01-25 18:17:00,26.0,23.2,30.16,SE,146,0.0,10.0,89,0.00,,---,0.01,VWS V13.01,2013-01-25 23:17:00,
2013-01-25 18:22:00,26.0,23.2,30.16,SW,226,0.0,10.0,89,0.00,,---,0.01,VWS V13.01,2013-01-25 23:22:00,
2013-01-25 18:27:00,25.9,23.1,30.15,North,1,0.0,10.0,89,0.00,,---,0.01,VWS V13.01,2013-01-25 23:27:00,
2013-01-25 18:32:00,25.9,23.1,30.15,WNW,282,0.0,10.0,89,0.00,,---,0.01,VWS V13.01,2013-01-25 23:32:00,
2013-01-25 18:37:00,25.9,23.1,30.15,SSE,148,0.0,10.0,89,0.00,,---,0.01,VWS V13.01,2013-01-25 23:37:00,
2013-01-25 18:42:00,25.9,23.1,30.14,SSE,148,0.0,10.0,89,0.00,,---,0.01,VWS V13.01,2013-01-25 23:42:00,
2013-01-25 18:47:00,25.9,23.1,30.14,SE,146,0.0,10.0,89,0.00,,---,0.01,VWS V13.01,2013-01-25 23:47:00,
2013-01-25 18:52:00,26.0,23.2,30.14,SSE,156,0.0,10.0,89,0.00,,---,0.01,VWS V13.01,2013-01-25 23:52:00,
2013-01-25 18:57:00,26.0,23.5,30.14,SSE,155,0.0,10.0,90,0.00,,---,0.01,VWS V13.01,2013-01-25 23:57:00,
2013-01-25 19:02:00,26.1,23.3,30.14,West,271,0.0,10.0,89,0.00,,---,0.01,VWS V13.01,2013-01-26 00:02:00,
2013-01-25 19:07:00,26.0,23.2,30.14,West,277,0.0,10.0,89,0.00,,---,0.01,VWS V13.01,2013-01-26 00:07:00,
2013-01-25 19:12:00,26.0,23.2,30.14,SSE,162,0.0,10.0,89,0.00,,---,0.01,VWS V13.01,2013-01-26 00:12:00,
2013-01-25 19:17:00,26.1,23.6,30.14,SSE,162,0.0,10.0,90,0.00,,---,0.01,VWS V13.01,2013-01-26 00:17:00,
2013-01-25 19:22:00,26.1,23.6,30.14,SW,224,0.0,10.0,90,0.00,,---,0.01,VWS V13.01,2013-01-26 00:22:00,
2013-01-25 19:27:00,26.2,23.7,30.13,SW,228,0.0,10.0,90,0.00,,---,0.01,VWS V13.01,2013-01-26 00:27:00,
2013-01-25 19:32:00,26.2,23.7,30.13,NNW,348,0.0,10.0,90,0.00,,---,0.01,VWS V13.01,2013-01-26 00:32:00,
2013-01-25 19:37:00,26.2,23.7,30.13,North,352,0.0,10.0,90,0.00,,---,0.01,VWS V13.01,2013-01-26 00:37:00,
2013-01-25 19:42:00,26.2,23.7,30.12,NE,49,0.0,10.0,90,0.00,,---,0.01,VWS V13.01,2013-01-26 00:42:00,
2013-01-25 19:47:00,26.2,23.7,30.12,North,349,0.0,10.0,90,0.00,,---,0.01,VWS V13.01,2013-01-26 00:47:00,
2013-01-25 19:52:00,26.2,23.7,30.12,SW,226,0.0,10.0,90,0.00,,---,0.01,VWS V13.01,2013-01-26 00:52:00,
2013-01-25 19:57:00,26.2,23.7,30.11,SSE,162,0.0,10.0,90,0.00,,---,0.01,VWS V13.01,2013-01-26 00:57:00,
2013-01-25 20:02:00,26.2,23.7,30.11,SSE,162,0.0,10.0,90,0.00,,---,0.01,VWS V13.01,2013-01-26 01:02:00,
2013-01-25 20:07:00,26.3,23.8,30.11,SSE,159,0.0,10.0,90,0.00,,---,0.01,VWS V13.01,2013-01-26 01:07:00,
2013-01-25 20:12:00,26.3,23.8,30.11,SW,214,0.0,10.0,90,0.00,,---,0.01,VWS V13.01,2013-01-26 01:12:00,
2013-01-25 20:17:00,26.3,23.8,30.11,NNW,330,0.0,10.0,90,0.00,,---,0.01,VWS V13.01,2013-01-26 01:17:00,
2013-01-25 20:22:00,26.3,23.8,30.11,NW,319,0.0,10.0,90,0.00,,---,0.01,VWS V13.01,2013-01-26 01:22:00,
2013-01-25 20:27:00,26.3,23.8,30.10,WSW,250,0.0,10.0,90,0.00,,---,0.01,VWS V13.01,2013-01-26 01:27:00,
2013-01-25 20:32:00,26.3,23.8,30.10,North,0,0.0,10.0,90,0.00,,---,0.01,VWS V13.01,2013-01-26 01:32:00,
2013-01-25 20:37:00,26.3,23.8,30.10,North,0,0.0,10.0,90,0.00,,---,0.01,VWS V13.01,2013-01-26 01:37:00,
2013-01-25 20:42:00,26.3,24.0,30.10,North,358,0.0,10.0,91,0.00,,---,0.01,VWS V13.01,2013-01-26 01:42:00,
2013-01-25 20:47:00,26.4,24.1,30.10,North,359,0.0,10.0,91,0.00,,---,0.01,VWS V13.01,2013-01-26 01:47:00,
2013-01-25 20:52:00,26.3,24.0,30.10,North,358,0.0,10.0,91,0.00,,---,0.01,VWS V13.01,2013-01-26 01:52:00,
2013-01-25 20:57:00,26.4,24.1,30.11,SW,217,0.0,10.0,91,0.00,,---,0.01,VWS V13.01,2013-01-26 01:57:00,
2013-01-25 21:02:00,26.4,24.1,30.11,SW,215,0.0,10.0,91,0.00,,---,0.01,VWS V13.01,2013-01-26 02:02:00,
2013-01-25 21:07:00,26.4,24.1,30.11,SW,216,0.0,10.0,91,0.00,,---,0.01,VWS V13.01,2013-01-26 02:07:00,
2013-01-25 21:12:00,26.5,24.2,30.11,WSW,253,0.0,10.0,91,0.00,,---,0.01,VWS V13.01,2013-01-26 02:12:00,
2013-01-25 21:17:00,26.5,24.0,30.11,WNW,300,0.0,10.0,90,0.00,,---,0.01,VWS V13.01,2013-01-26 02:17:00,
2013-01-25 21:22:00,26.4,23.9,30.11,SW,229,0.0,10.0,90,0.00,,---,0.01,VWS V13.01,2013-01-26 02:22:00,
2013-01-25 21:27:00,26.4,23.9,30.11,NNW,338,0.0,10.0,90,0.00,,---,0.01,VWS V13.01,2013-01-26 02:27:00,
2013-01-25 21:32:00,26.4,23.9,30.11,SW,231,0.0,10.0,90,0.00,,---,0.01,VWS V13.01,2013-01-26 02:32:00,
2013-01-25 21:37:00,26.4,23.9,30.11,SSW,210,0.0,10.0,90,0.00,,---,0.01,VWS V13.01,2013-01-26 02:37:00,
2013-01-25 21:42:00,26.4,23.9,30.12,NW,316,0.0,10.0,90,0.00,,---,0.01,VWS V13.01,2013-01-26 02:42:00,
2013-01-25 21:47:00,26.4,23.9,30.12,SSW,206,0.0,10.0,90,0.00,,---,0.01,VWS V13.01,2013-01-26 02:47:00,
2013-01-25 21:52:00,26.4,23.9,30.12,SSE,153,0.0,10.0,90,0.00,,---,0.01,VWS V13.01,2013-01-26 02:52:00,
2013-01-25 21:57:00,26.5,24.0,30.12,SSE,163,0.0,10.0,90,0.00,,---,0.01,VWS V13.01,2013-01-26 02:57:00,
2013-01-25 22:02:00,26.4,23.9,30.12,WSW,240,0.0,10.0,90,0.00,,---,0.01,VWS V13.01,2013-01-26 03:02:00,
2013-01-25 22:07:00,26.4,23.9,30.12,SW,236,0.0,10.0,90,0.00,,---,0.01,VWS V13.01,2013-01-26 03:07:00,
2013-01-25 22:12:00,26.4,23.9,30.12,SW,236,0.0,10.0,90,0.00,,---,0.01,VWS V13.01,2013-01-26 03:12:00,
2013-01-25 22:17:00,26.4,23.9,30.12,SSE,162,0.0,10.0,90,0.00,,---,0.01,VWS V13.01,2013-01-26 03:17:00,
2013-01-25 22:22:00,26.4,23.9,30.12,SSW,203,0.0,10.0,90,0.00,,---,0.01,VWS V13.01,2013-01-26 03:22:00,
2013-01-25 22:27:00,26.4,23.9,30.11,NNW,340,0.0,10.0,90,0.00,,---,0.01,VWS V13.01,2013-01-26 03:27:00,
2013-01-25 22:32:00,26.4,23.9,30.11,WNW,294,0.0,10.0,90,0.00,,---,0.01,VWS V13.01,2013-01-26 03:32:00,
2013-01-25 22:37:00,26.4,23.9,30.11,SSW,210,0.0,10.0,90,0.00,,---,0.01,VWS V13.01,2013-01-26 03:37:00,
2013-01-25 22:42:00,26.3,23.8,30.11,SW,236,0.0,10.0,90,0.00,,---,0.01,VWS V13.01,2013-01-26 03:42:00,
2013-01-25 22:47:00,26.3,23.8,30.11,WSW,245,0.0,10.0,90,0.00,,---,0.01,VWS V13.01,2013-01-26 03:47:00,
2013-01-25 22:52:00,26.3,23.8,30.11,SSE,148,0.0,10.0,90,0.00,,---,0.01,VWS V13.01,2013-01-26 03:52:00,
2013-01-25 22:57:00,26.3,23.8,30.11,NNE,33,0.0,10.0,90,0.00,,---,0.01,VWS V13.01,2013-01-26 03:57:00,
2013-01-25 23:02:00,26.3,23.8,30.11,NNW,335,0.0,10.0,90,0.00,,---,0.01,VWS V13.01,2013-01-26 04:02:00,
2013-01-25 23:07:00,26.3,23.8,30.11,NNW,330,0.0,10.0,90,0.00,,---,0.01,VWS V13.01,2013-01-26 04:07:00,
2013-01-25 23:12:00,26.3,23.8,30.11,SSW,203,0.0,10.0,90,0.00,,---,0.01,VWS V13.01,2013-01-26 04:12:00,
2013-01-25 23:17:00,26.3,24.0,30.11,SSW,205,0.0,10.0,91,0.00,,---,0.01,VWS V13.01,2013-01-26 04:17:00,
2013-01-25 23:22:00,26.3,23.8,30.11,NE,34,0.0,10.0,90,0.00,,---,0.01,VWS V13.01,2013-01-26 04:22:00,
2013-01-25 23:27:00,26.3,23.8,30.11,North,1,0.0,10.0,90,0.00,,---,0.01,VWS V13.01,2013-01-26 04:27:00,
2013-01-25 23:32:00,26.3,23.8,30.11,North,352,0.0,10.0,90,0.00,,---,0.01,VWS V13.01,2013-01-26 04:32:00,
2013-01-25 23:37:00,26.3,23.8,30.11,NNW,332,1.0,10.0,90,0.00,,---,0.01,VWS V13.01,2013-01-26 04:37:00,
2013-01-25 23:42:00,26.3,23.8,30.09,NW,320,2.0,10.0,90,0.00,,---,0.01,VWS V13.01,2013-01-26 04:42:00,
2013-01-25 23:47:00,26.3,24.0,30.09,SW,230,0.0,10.0,91,0.00,,---,0.01,VWS V13.01,2013-01-26 04:47:00,
2013-01-25 23:52:00,26.3,24.0,30.09,WNW,300,0.0,10.0,91,0.00,,---,0.01,VWS V13.01,2013-01-26 04:52:00,
2013-01-25 23:57:00,26.4,24.1,30.09,WNW,301,0.0,10.0,91,0.00,,---,0.01,VWS V13.01,2013-01-26 04:57:00,